Wetbulb
48.82 47.87 47.68 47.83 47.30 46.86 46.35 46.25 46.72 46.15 46.08 45.73 45.42 44.30 42.56 40.94 40.51 40.15 39.39 38.53 38.42 38.71
48.77 48.27 47.70 47.99 47.87 47.29 47.23 48.10 46.59 45.70 45.38 45.23 45.00 44.48 43.16 41.35 40.31 39.94 39.10 38.81 38.66 38.62
48.04 48.15 47.94 47.77 47.35 47.23 47.13 47.04 46.37 45.77 45.50 45.20 44.95 44.45 43.34 41.93 41.71 40.67 40.01 40.33 39.06 38.45
47.31 47.83 47.70 47.23 46.50 45.65 45.12 44.92 44.61 44.54 44.11 43.92 43.71 43.73 42.97 42.39 42.26 41.50 40.81 40.51 39.68 39.19
46.15 45.86 44.94 43.44 42.97 43.09 42.18 42.70 42.64 42.74 42.40 42.23 42.10 41.64 40.89 40.63 41.26 40.71 40.28 40.46 40.11 40.11
42.23 41.81 40.91 41.22 41.75 42.16 41.42 41.04 41.18 41.28 40.75 40.95 41.19 40.75 40.40 40.16 39.84 39.56 39.47 39.34 39.04 39.23
40.55 40.82 40.64 40.96 40.50 40.07 39.44 38.47 38.08 38.26 38.37 38.72 39.03 39.35 39.63 39.76 38.35 37.37 38.29 38.99 39.42 39.44
40.64 40.34 39.18 38.17 37.54 37.42 37.21 36.99 36.87 36.68 36.68 36.62 37.02 38.26 37.09 37.69 37.03 36.10 36.83 37.47 38.61 39.21
38.81 38.09 36.73 36.17 35.82 35.79 35.69 35.48 35.45 35.34 35.40 34.87 37.32 41.93 43.35 41.82 36.94 37.12 37.07 36.39 37.20 37.53
36.77 36.21 35.62 35.62 35.25 34.78 34.04 34.00 34.11 34.30 34.57 34.28 34.56 41.83 43.20 43.32 38.19 36.46 36.13 36.05 36.18 36.67
35.89 35.19 35.21 34.75 34.40 33.72 33.79 33.53 33.56 33.80 34.00 33.65 35.57 41.41 42.11 42.09 36.47 35.11 34.88 35.41 35.25 34.87
35.13 34.32 34.31 33.63 33.18 33.47 33.10 33.03 33.07 33.95 33.29 32.59 33.10 39.38 40.92 40.22 34.93 33.80 33.55 35.27 35.32 34.76
34.74 33.92 33.08 32.89 32.40 33.01 33.10 33.70 33.70 33.46 32.94 35.09 33.85 37.59 40.33 39.69 34.44 31.68 32.91 33.25 34.92 38.24
34.21 33.34 32.79 31.90 31.83 31.94 31.68 32.14 31.25 31.31 31.11 30.75 31.64 31.45 39.45 40.32 35.75 33.25 32.97 33.47 33.96 34.70
MSLP
1019.20 1019.45 1019.62 1019.76 1019.85 1019.94 1019.92 1020.00 1019.96 1020.16 1020.41 1020.41 1020.50 1020.68 1020.86 1021.14 1021.10 1021.04 1021.09 1021.08 1021.03 1020.91
1018.99 1019.24 1019.40 1019.47 1019.60 1019.70 1019.76 1019.88 1019.99 1020.14 1020.21 1020.21 1020.29 1020.38 1020.54 1020.75 1020.74 1020.75 1020.80 1020.75 1020.66 1020.65
1018.67 1018.80 1018.94 1019.19 1019.36 1019.46 1019.62 1019.73 1019.93 1020.04 1020.02 1020.04 1020.00 1020.02 1020.17 1020.27 1020.31 1020.36 1020.31 1020.28 1020.21 1020.08
1018.46 1018.55 1018.84 1019.11 1019.21 1019.40 1019.64 1019.77 1019.81 1019.88 1019.93 1019.98 1019.98 1019.91 1019.95 1019.93 1019.89 1019.87 1019.78 1019.75 1019.66 1019.39
1018.45 1018.68 1018.98 1019.16 1019.39 1019.63 1019.80 1019.66 1019.74 1019.83 1019.88 1019.94 1019.92 1019.84 1019.80 1019.76 1019.66 1019.54 1019.41 1019.22 1019.13 1018.82
1018.77 1018.99 1019.24 1019.45 1019.74 1019.89 1019.90 1019.89 1019.81 1019.82 1019.94 1019.97 1019.92 1019.89 1019.81 1019.72 1019.57 1019.37 1019.16 1018.91 1018.69 1018.35
1019.12 1019.33 1019.56 1019.86 1020.06 1020.10 1020.08 1020.02 1019.99 1020.05 1020.06 1019.98 1019.84 1019.73 1019.57 1019.45 1019.28 1019.10 1018.92 1018.65 1018.27 1017.81
1019.37 1019.65 1019.99 1020.19 1020.27 1020.27 1020.19 1020.13 1020.12 1020.05 1019.93 1019.80 1019.62 1019.41 1019.26 1019.20 1019.07 1018.91 1018.63 1018.25 1017.80 1017.28
1019.68 1020.04 1020.21 1020.27 1020.31 1020.28 1020.25 1020.15 1020.12 1020.02 1019.90 1019.66 1019.40 1019.18 1018.94 1018.82 1018.76 1018.61 1018.41 1018.01 1017.41 1016.87
1019.94 1020.18 1020.30 1020.32 1020.35 1020.39 1020.29 1020.16 1020.18 1020.04 1019.81 1019.51 1019.19 1018.92 1018.66 1018.49 1018.38 1018.34 1018.07 1017.62 1017.05 1016.41
1020.14 1020.32 1020.31 1020.36 1020.44 1020.43 1020.34 1020.28 1020.09 1019.84 1019.59 1019.37 1018.98 1018.60 1018.28 1018.01 1017.86 1017.78 1017.51 1017.14 1016.63 1016.04
1020.16 1020.33 1020.42 1020.56 1020.55 1020.39 1020.25 1020.16 1019.95 1019.69 1019.43 1019.13 1018.71 1018.27 1017.87 1017.49 1017.23 1017.06 1016.76 1016.47 1016.05 1015.61
1020.16 1020.31 1020.53 1020.50 1020.52 1020.37 1020.21 1019.98 1019.67 1019.41 1019.12 1018.76 1018.33 1017.83 1017.38 1017.04 1016.69 1016.45 1015.97 1015.69 1015.25 1015.08
1020.12 1020.25 1020.34 1020.38 1020.39 1020.27 1020.03 1019.70 1019.50 1019.22 1018.76 1018.36 1017.93 1017.38 1017.01 1016.64 1016.15 1015.90 1015.36 1015.04 1014.62 1014.41
Wind_Speed
5 3 2 3 1 1 1 2 1 1 3 4 4 4 4 3 4 5 5 7 6 4
6 5 4 4 3 2 2 2 2 3 3 4 4 5 5 4 5 5 5 6 6 5
6 6 5 3 3 3 3 3 4 4 4 5 5 6 5 5 5 6 5 5 6 6
3 4 2 2 1 1 2 3 3 3 3 4 4 5 4 6 7 7 7 6 7 8
4 4 2 2 4 4 2 3 2 2 3 4 5 4 5 6 6 7 7 7 7 9
4 3 5 5 4 3 3 3 4 4 4 5 5 5 6 6 6 7 7 7 7 8
5 5 5 4 3 3 3 4 4 4 5 6 5 5 6 5 5 6 7 7 8 8
5 5 4 4 3 3 4 4 4 5 5 6 5 4 4 5 6 7 8 8 9 10
5 4 3 3 3 4 4 4 4 5 6 6 4 8 11 7 5 6 8 10 10 8
4 4 3 3 4 4 4 4 5 6 6 7 7 11 13 13 4 6 8 9 9 8
4 3 3 3 4 4 3 5 5 6 6 6 7 14 16 15 6 6 7 9 9 9
3 2 3 4 4 5 4 5 5 5 7 7 7 14 16 16 6 6 8 8 9 8
2 1 3 5 5 3 4 6 5 6 7 11 9 14 16 14 6 6 7 7 9 14
1 3 4 4 3 5 6 6 6 7 7 8 8 8 16 19 9 7 9 9 9 7
Wind_Direction
185 183 195 219 213 245 222 262 296 226 221 236 246 237 224 231 240 240 249 250 247 253
185 187 204 216 202 211 250 258 256 264 266 265 255 244 234 234 247 248 247 249 246 243
193 191 189 195 221 225 237 233 232 238 244 250 249 247 242 245 248 248 250 246 244 240
188 138 159 202 252 64 28 324 329 325 327 313 298 286 270 260 251 248 251 247 248 248
105 106 143 101 66 53 3 355 338 331 319 299 296 299 297 291 288 280 277 267 259 264
119 108 86 71 56 49 35 -0 348 359 336 324 319 311 300 294 295 292 288 285 277 270
93 82 80 78 56 42 19 5 352 343 333 320 310 303 290 290 304 304 297 290 281 275
92 80 72 63 42 13 6 346 338 332 316 306 300 281 297 298 291 289 288 282 281 280
92 93 80 52 13 4 348 336 332 315 303 304 291 295 304 297 275 279 281 284 287 283
94 91 61 24 7 341 326 328 314 304 302 298 296 298 302 305 286 280 278 276 279 286
93 72 34 3 333 325 312 297 292 294 295 295 295 302 305 306 290 278 273 277 278 279
88 41 358 335 309 286 289 293 289 286 292 290 285 289 292 294 279 269 275 282 283 286
72 10 309 285 295 287 284 278 284 289 280 274 277 276 281 292 283 274 283 277 279 288
309 270 266 286 289 283 282 283 285 278 275 273 275 282 293 293 294 286 290 287 288 283